QPF
0.07 0.07 0.05 0.03 0.04 0.10 0.12 0.10 0.06 0.06 0.06 0.06 0.08 0.07 0.07 0.08 0.07 0.06 0.04 0.04 0.03 0.02 0.02 0.03 0.04 0.04 0.04 0.05 0.05 0.04 0.05 0.04 0.03 0.03 0.02 0.03 0.03 0.03 0.04 0.04 0.03 0.03 0.03
0.07 0.06 0.04 0.02 0.01 0.02 0.04 0.07 0.07 0.06 0.07 0.07 0.07 0.06 0.06 0.06 0.05 0.05 0.04 0.04 0.04 0.02 0.02 0.03 0.04 0.04 0.05 0.07 0.06 0.06 0.05 0.04 0.04 0.03 0.03 0.03 0.04 0.06 0.08 0.07 0.07 0.07 0.05
0.05 0.04 0.03 0.01 0.01 0.01 0.02 0.03 0.05 0.07 0.08 0.08 0.07 0.06 0.04 0.04 0.03 0.03 0.03 0.03 0.04 0.04 0.03 0.03 0.04 0.04 0.05 0.06 0.07 0.07 0.07 0.05 0.04 0.03 0.02 0.02 0.03 0.04 0.07 0.09 0.11 0.12 0.12
0.03 0.02 0.02 0.01 0.02 0.02 0.02 0.02 0.04 0.07 0.09 0.07 0.06 0.04 0.02 0.02 0.02 0.02 0.02 0.02 0.03 0.04 0.03 0.04 0.05 0.05 0.05 0.06 0.05 0.07 0.09 0.07 0.04 0.03 0.03 0.03 0.03 0.03 0.04 0.06 0.08 0.10 0.13
0.03 0.02 0.01 0.01 0.01 0.02 0.03 0.04 0.05 0.07 0.08 0.06 0.05 0.03 0.02 0.01 0.02 0.02 0.02 0.02 0.03 0.03 0.03 0.03 0.05 0.05 0.06 0.07 0.08 0.08 0.09 0.07 0.05 0.05 0.05 0.05 0.04 0.04 0.04 0.03 0.03 0.05 0.07
0.04 0.02 0.01 0.02 0.01 0.01 0.03 0.04 0.05 0.06 0.08 0.08 0.06 0.04 0.03 0.02 0.03 0.03 0.04 0.04 0.03 0.04 0.04 0.04 0.05 0.05 0.05 0.06 0.08 0.08 0.08 0.07 0.07 0.06 0.06 0.06 0.06 0.06 0.04 0.03 0.03 0.03 0.03
0.04 0.03 0.01 0.01 0.01 0.01 0.03 0.06 0.06 0.05 0.07 0.10 0.10 0.07 0.06 0.05 0.04 0.03 0.04 0.06 0.06 0.06 0.08 0.07 0.07 0.06 0.03 0.04 0.05 0.07 0.08 0.08 0.09 0.08 0.06 0.05 0.04 0.05 0.04 0.04 0.04 0.03 0.03
0.04 0.03 0.02 0.01 0.01 0.02 0.03 0.04 0.08 0.08 0.09 0.09 0.09 0.10 0.09 0.07 0.05 0.02 0.03 0.04 0.06 0.07 0.06 0.06 0.07 0.06 0.04 0.03 0.03 0.05 0.06 0.07 0.09 0.07 0.05 0.05 0.05 0.05 0.04 0.04 0.05 0.04 0.03
0.04 0.04 0.04 0.03 0.02 0.03 0.04 0.03 0.06 0.11 0.12 0.12 0.11 0.11 0.10 0.08 0.05 0.03 0.03 0.05 0.06 0.05 0.03 0.04 0.04 0.05 0.05 0.04 0.04 0.05 0.05 0.05 0.06 0.07 0.08 0.06 0.05 0.05 0.04 0.04 0.04 0.04 0.03
0.05 0.05 0.05 0.05 0.05 0.06 0.05 0.04 0.04 0.05 0.07 0.12 0.13 0.11 0.09 0.07 0.06 0.05 0.04 0.04 0.04 0.02 0.02 0.02 0.03 0.03 0.05 0.05 0.05 0.07 0.06 0.04 0.04 0.06 0.09 0.10 0.09 0.07 0.05 0.04 0.04 0.04 0.04
0.06 0.05 0.05 0.05 0.07 0.07 0.06 0.04 0.03 0.03 0.04 0.05 0.07 0.06 0.05 0.04 0.04 0.04 0.04 0.04 0.03 0.02 0.02 0.02 0.02 0.02 0.03 0.05 0.06 0.06 0.06 0.05 0.04 0.04 0.05 0.05 0.06 0.06 0.04 0.04 0.04 0.04 0.04
0.07 0.05 0.04 0.04 0.05 0.05 0.05 0.03 0.04 0.05 0.04 0.03 0.03 0.03 0.03 0.03 0.03 0.03 0.03 0.02 0.02 0.02 0.02 0.02 0.02 0.02 0.02 0.03 0.04 0.04 0.04 0.04 0.04 0.04 0.04 0.04 0.04 0.05 0.05 0.05 0.05 0.05 0.05
0.08 0.07 0.04 0.03 0.03 0.03 0.03 0.03 0.03 0.04 0.06 0.05 0.04 0.03 0.03 0.04 0.05 0.04 0.03 0.02 0.01 0.01 0.02 0.02 0.02 0.02 0.02 0.03 0.03 0.05 0.05 0.06 0.06 0.06 0.06 0.05 0.05 0.06 0.06 0.04 0.04 0.04 0.04
0.12 0.10 0.08 0.05 0.04 0.03 0.02 0.03 0.02 0.03 0.05 0.06 0.07 0.05 0.03 0.04 0.05 0.04 0.04 0.03 0.03 0.03 0.02 0.02 0.01 0.01 0.01 0.01 0.03 0.06 0.07 0.08 0.07 0.06 0.05 0.04 0.04 0.04 0.04 0.04 0.04 0.04 0.03
0.10 0.13 0.12 0.09 0.06 0.04 0.04 0.04 0.04 0.04 0.06 0.06 0.09 0.08 0.06 0.06 0.06 0.06 0.06 0.06 0.06 0.04 0.03 0.02 0.01 0.01 0.01 0.01 0.01 0.01 0.01 0.02 0.03 0.03 0.04 0.04 0.04 0.03 0.03 0.04 0.04 0.04 0.03
0.02 0.04 0.10 0.13 0.11 0.08 0.07 0.07 0.05 0.05 0.06 0.06 0.08 0.09 0.07 0.06 0.06 0.05 0.05 0.06 0.06 0.03 0.02 0.01 0.01 0.01 0.01 0.01 0.02 0.01 0.01 0.01 0.01 0.02 0.02 0.02 0.03 0.03 0.03 0.03 0.03 0.03 0.03
0.03 0.03 0.05 0.05 0.08 0.11 0.11 0.09 0.07 0.06 0.05 0.05 0.06 0.07 0.06 0.06 0.06 0.05 0.05 0.05 0.05 0.04 0.03 0.01 0.01 0.01 0.02 0.02 0.02 0.02 0.01 0.01 0.01 0.01 0.01 0.01 0.02 0.03 0.03 0.03 0.02 0.02 0.02
0.03 0.04 0.04 0.03 0.03 0.06 0.10 0.13 0.12 0.10 0.06 0.05 0.07 0.07 0.07 0.10 0.09 0.09 0.09 0.08 0.06 0.06 0.04 0.03 0.03 0.03 0.03 0.02 0.02 0.01 0.01 0.01 0.01 0.01 0.01 0.01 0.01 0.02 0.03 0.04 0.03 0.03 0.02
0.08 0.08 0.08 0.07 0.07 0.08 0.06 0.07 0.11 0.13 0.12 0.10 0.10 0.09 0.11 0.14 0.15 0.14 0.10 0.08 0.08 0.08 0.07 0.05 0.04 0.03 0.02 0.02 0.02 0.01 0.01 0.01 0.01 0.01 0.01 0.01 0.01 0.01 0.02 0.03 0.04 0.03 0.03
0.11 0.11 0.12 0.12 0.13 0.12 0.09 0.06 0.07 0.09 0.10 0.10 0.11 0.12 0.14 0.15 0.14 0.12 0.09 0.08 0.08 0.07 0.06 0.05 0.04 0.03 0.03 0.03 0.03 0.02 0.02 0.02 0.01 0.02 0.02 0.02 0.01 0.01 0.02 0.02 0.03 0.02 0.02
0.10 0.10 0.08 0.08 0.08 0.06 0.07 0.09 0.07 0.06 0.06 0.07 0.08 0.09 0.11 0.12 0.12 0.11 0.09 0.08 0.08 0.06 0.05 0.04 0.03 0.03 0.03 0.03 0.02 0.02 0.02 0.02 0.02 0.02 0.02 0.02 0.02 0.02 0.02 0.02 0.02 0.02 0.03
0.06 0.05 0.04 0.03 0.04 0.04 0.06 0.06 0.06 0.05 0.04 0.06 0.08 0.09 0.10 0.10 0.09 0.09 0.08 0.08 0.07 0.05 0.05 0.04 0.04 0.03 0.03 0.03 0.03 0.03 0.03 0.03 0.03 0.03 0.03 0.02 0.02 0.01 0.01 0.02 0.02 0.03 0.04
0.04 0.04 0.04 0.05 0.06 0.07 0.08 0.06 0.06 0.05 0.05 0.06 0.07 0.09 0.08 0.05 0.05 0.05 0.05 0.06 0.05 0.05 0.05 0.04 0.03 0.03 0.02 0.03 0.04 0.03 0.03 0.04 0.05 0.05 0.04 0.02 0.02 0.02 0.02 0.02 0.03 0.03 0.03
0.05 0.04 0.05 0.07 0.07 0.07 0.07 0.07 0.07 0.07 0.06 0.05 0.04 0.04 0.03 0.02 0.02 0.03 0.04 0.04 0.04 0.05 0.05 0.04 0.03 0.03 0.03 0.04 0.04 0.04 0.04 0.04 0.04 0.03 0.03 0.03 0.02 0.03 0.03 0.03 0.03 0.03 0.03
0.05 0.05 0.06 0.06 0.07 0.07 0.08 0.09 0.09 0.07 0.06 0.05 0.04 0.03 0.02 0.02 0.02 0.04 0.03 0.03 0.04 0.04 0.05 0.04 0.03 0.03 0.04 0.05 0.05 0.05 0.05 0.04 0.04 0.04 0.03 0.03 0.02 0.03 0.03 0.03 0.04 0.04 0.03
0.05 0.05 0.05 0.05 0.06 0.06 0.06 0.07 0.08 0.09 0.07 0.05 0.04 0.03 0.03 0.03 0.03 0.05 0.04 0.04 0.04 0.04 0.04 0.04 0.04 0.04 0.04 0.05 0.07 0.05 0.06 0.06 0.04 0.04 0.03 0.04 0.04 0.04 0.03 0.03 0.04 0.05 0.05
MSLP
1017.55 1017.75 1017.92 1018.04 1018.12 1018.19 1018.27 1018.37 1018.50 1018.65 1018.80 1018.92 1018.98 1018.97 1018.89 1018.78 1018.66 1018.57 1018.56 1018.62 1018.77 1018.99 1019.24 1019.49 1019.71 1019.87 1019.99 1020.07 1020.14 1020.22 1020.32 1020.46 1020.64 1020.82 1021.01 1021.17 1021.30 1021.39 1021.44 1021.47 1021.48 1021.50 1021.53
1017.92 1018.12 1018.27 1018.36 1018.41 1018.43 1018.47 1018.53 1018.63 1018.77 1018.90 1019.00 1019.03 1018.99 1018.86 1018.69 1018.49 1018.33 1018.24 1018.26 1018.37 1018.58 1018.84 1019.11 1019.36 1019.57 1019.71 1019.81 1019.87 1019.94 1020.02 1020.13 1020.28 1020.46 1020.65 1020.83 1020.98 1021.09 1021.16 1021.21 1021.23 1021.25 1021.27
1018.21 1018.42 1018.57 1018.65 1018.68 1018.69 1018.70 1018.74 1018.82 1018.94 1019.05 1019.12 1019.12 1019.04 1018.86 1018.61 1018.35 1018.10 1017.93 1017.87 1017.93 1018.10 1018.35 1018.63 1018.90 1019.12 1019.29 1019.40 1019.47 1019.53 1019.59 1019.69 1019.82 1019.99 1020.18 1020.36 1020.53 1020.67 1020.77 1020.84 1020.89 1020.93 1020.97
1018.41 1018.63 1018.79 1018.89 1018.93 1018.94 1018.95 1018.98 1019.05 1019.14 1019.22 1019.27 1019.24 1019.11 1018.88 1018.58 1018.24 1017.92 1017.67 1017.53 1017.52 1017.62 1017.82 1018.08 1018.33 1018.56 1018.74 1018.86 1018.94 1018.99 1019.05 1019.13 1019.25 1019.40 1019.58 1019.77 1019.95 1020.11 1020.25 1020.36 1020.45 1020.53 1020.60
1018.50 1018.73 1018.91 1019.02 1019.09 1019.12 1019.14 1019.18 1019.24 1019.31 1019.37 1019.39 1019.34 1019.18 1018.92 1018.58 1018.19 1017.81 1017.49 1017.27 1017.17 1017.19 1017.32 1017.51 1017.73 1017.94 1018.10 1018.22 1018.30 1018.35 1018.40 1018.47 1018.57 1018.70 1018.87 1019.06 1019.25 1019.43 1019.59 1019.75 1019.89 1020.02 1020.15
1018.48 1018.69 1018.87 1019.01 1019.10 1019.16 1019.21 1019.26 1019.32 1019.38 1019.43 1019.43 1019.36 1019.20 1018.93 1018.58 1018.18 1017.77 1017.39 1017.10 1016.92 1016.85 1016.88 1016.98 1017.13 1017.28 1017.41 1017.51 1017.58 1017.62 1017.67 1017.72 1017.81 1017.93 1018.08 1018.25 1018.44 1018.63 1018.83 1019.02 1019.21 1019.40 1019.58
1018.30 1018.48 1018.65 1018.80 1018.92 1019.01 1019.09 1019.15 1019.22 1019.28 1019.32 1019.32 1019.25 1019.10 1018.87 1018.54 1018.16 1017.75 1017.36 1017.02 1016.76 1016.59 1016.52 1016.52 1016.57 1016.64 1016.72 1016.77 1016.82 1016.85 1016.89 1016.93 1017.00 1017.10 1017.23 1017.38 1017.56 1017.76 1017.97 1018.20 1018.43 1018.67 1018.90
1017.96 1018.08 1018.22 1018.37 1018.51 1018.63 1018.74 1018.82 1018.89 1018.95 1018.99 1019.00 1018.96 1018.86 1018.67 1018.42 1018.09 1017.72 1017.34 1016.98 1016.66 1016.41 1016.23 1016.12 1016.06 1016.04 1016.04 1016.04 1016.05 1016.07 1016.08 1016.12 1016.17 1016.25 1016.35 1016.48 1016.65 1016.84 1017.05 1017.29 1017.55 1017.83 1018.10
1017.48 1017.52 1017.63 1017.77 1017.92 1018.05 1018.17 1018.26 1018.34 1018.40 1018.44 1018.47 1018.47 1018.43 1018.32 1018.15 1017.92 1017.62 1017.28 1016.93 1016.59 1016.27 1016.00 1015.77 1015.61 1015.48 1015.40 1015.35 1015.31 1015.30 1015.30 1015.31 1015.34 1015.40 1015.47 1015.58 1015.71 1015.88 1016.08 1016.32 1016.60 1016.89 1017.19
1016.90 1016.88 1016.94 1017.06 1017.20 1017.34 1017.46 1017.55 1017.62 1017.68 1017.72 1017.77 1017.81 1017.83 1017.81 1017.74 1017.61 1017.41 1017.14 1016.82 1016.48 1016.12 1015.78 1015.47 1015.20 1014.98 1014.82 1014.70 1014.62 1014.57 1014.54 1014.54 1014.54 1014.57 1014.61 1014.68 1014.78 1014.92 1015.09 1015.32 1015.58 1015.88 1016.19
1016.31 1016.23 1016.26 1016.35 1016.48 1016.61 1016.71 1016.79 1016.84 1016.88 1016.92 1016.97 1017.04 1017.11 1017.18 1017.21 1017.18 1017.08 1016.90 1016.64 1016.31 1015.94 1015.56 1015.18 1014.84 1014.55 1014.31 1014.13 1014.00 1013.91 1013.85 1013.82 1013.79 1013.78 1013.78 1013.81 1013.86 1013.96 1014.10 1014.29 1014.53 1014.81 1015.12
1015.79 1015.69 1015.68 1015.75 1015.86 1015.96 1016.04 1016.09 1016.10 1016.11 1016.13 1016.17 1016.26 1016.37 1016.49 1016.61 1016.67 1016.67 1016.57 1016.37 1016.09 1015.73 1015.34 1014.93 1014.54 1014.20 1013.91 1013.67 1013.49 1013.36 1013.25 1013.17 1013.11 1013.05 1013.01 1012.98 1012.98 1013.03 1013.12 1013.27 1013.47 1013.73 1014.02
1015.44 1015.33 1015.31 1015.35 1015.43 1015.50 1015.54 1015.55 1015.52 1015.48 1015.46 1015.48 1015.56 1015.69 1015.85 1016.01 1016.15 1016.22 1016.20 1016.07 1015.84 1015.52 1015.15 1014.74 1014.33 1013.96 1013.63 1013.35 1013.12 1012.93 1012.78 1012.65 1012.52 1012.41 1012.30 1012.21 1012.16 1012.14 1012.18 1012.28 1012.44 1012.66 1012.92
1015.30 1015.19 1015.16 1015.19 1015.24 1015.27 1015.27 1015.22 1015.14 1015.06 1015.00 1014.98 1015.03 1015.15 1015.32 1015.51 1015.69 1015.81 1015.85 1015.79 1015.62 1015.36 1015.02 1014.63 1014.24 1013.85 1013.50 1013.19 1012.91 1012.67 1012.46 1012.25 1012.06 1011.87 1011.70 1011.54 1011.41 1011.33 1011.31 1011.35 1011.46 1011.63 1011.85
1015.35 1015.27 1015.24 1015.25 1015.26 1015.25 1015.21 1015.12 1015.00 1014.87 1014.76 1014.71 1014.73 1014.82 1014.98 1015.17 1015.37 1015.52 1015.60 1015.59 1015.48 1015.27 1014.99 1014.65 1014.28 1013.90 1013.54 1013.20 1012.88 1012.58 1012.30 1012.02 1011.74 1011.47 1011.22 1010.98 1010.79 1010.64 1010.55 1010.52 1010.57 1010.68 1010.86
1015.56 1015.49 1015.46 1015.45 1015.44 1015.40 1015.33 1015.20 1015.05 1014.89 1014.76 1014.68 1014.66 1014.72 1014.85 1015.03 1015.21 1015.38 1015.48 1015.51 1015.45 1015.30 1015.07 1014.78 1014.45 1014.10 1013.74 1013.38 1013.02 1012.66 1012.30 1011.94 1011.58 1011.23 1010.88 1010.57 1010.29 1010.07 1009.91 1009.82 1009.80 1009.85 1009.96
1015.83 1015.77 1015.74 1015.71 1015.68 1015.63 1015.53 1015.40 1015.24 1015.08 1014.93 1014.83 1014.80 1014.83 1014.93 1015.08 1015.24 1015.39 1015.50 1015.55 1015.53 1015.43 1015.25 1015.01 1014.73 1014.40 1014.05 1013.68 1013.28 1012.87 1012.45 1012.01 1011.57 1011.13 1010.70 1010.31 1009.95 1009.65 1009.42 1009.25 1009.16 1009.14 1009.18
1016.07 1016.01 1015.97 1015.94 1015.90 1015.84 1015.75 1015.63 1015.48 1015.33 1015.20 1015.10 1015.06 1015.08 1015.15 1015.26 1015.40 1015.53 1015.63 1015.68 1015.68 1015.61 1015.48 1015.29 1015.04 1014.75 1014.41 1014.03 1013.61 1013.16 1012.68 1012.18 1011.67 1011.16 1010.66 1010.19 1009.76 1009.38 1009.07 1008.82 1008.65 1008.54 1008.50
1016.20 1016.14 1016.10 1016.07 1016.03 1015.98 1015.91 1015.82 1015.71 1015.59 1015.49 1015.41 1015.37 1015.38 1015.43 1015.52 1015.62 1015.72 1015.80 1015.84 1015.84 1015.80 1015.69 1015.54 1015.33 1015.06 1014.74 1014.37 1013.94 1013.47 1012.95 1012.41 1011.84 1011.27 1010.71 1010.18 1009.69 1009.24 1008.85 1008.51 1008.25 1008.05 1007.92
1016.20 1016.15 1016.11 1016.08 1016.06 1016.03 1015.99 1015.93 1015.87 1015.79 1015.73 1015.68 1015.66 1015.67 1015.70 1015.76 1015.83 1015.89 1015.94 1015.97 1015.96 1015.92 1015.83 1015.70 1015.52 1015.28 1014.98 1014.62 1014.20 1013.72 1013.20 1012.63 1012.03 1011.43 1010.83 1010.25 1009.69 1009.18 1008.71 1008.29 1007.93 1007.63 1007.39
1016.09 1016.04 1016.02 1016.00 1016.00 1015.99 1015.98 1015.96 1015.93 1015.90 1015.88 1015.86 1015.86 1015.87 1015.89 1015.93 1015.96 1015.99 1016.01 1016.00 1015.98 1015.93 1015.85 1015.74 1015.58 1015.36 1015.09 1014.76 1014.35 1013.89 1013.37 1012.80 1012.20 1011.58 1010.96 1010.34 1009.74 1009.17 1008.62 1008.11 1007.65 1007.25 1006.90
1015.91 1015.88 1015.86 1015.87 1015.88 1015.89 1015.90 1015.91 1015.91 1015.92 1015.92 1015.93 1015.94 1015.96 1015.97 1015.99 1015.99 1015.99 1015.97 1015.94 1015.89 1015.83 1015.75 1015.64 1015.49 1015.30 1015.06 1014.75 1014.38 1013.94 1013.44 1012.90 1012.31 1011.69 1011.06 1010.42 1009.78 1009.15 1008.54 1007.95 1007.39 1006.88 1006.42
1015.71 1015.70 1015.70 1015.72 1015.74 1015.76 1015.78 1015.80 1015.81 1015.83 1015.85 1015.88 1015.90 1015.92 1015.93 1015.93 1015.91 1015.88 1015.83 1015.77 1015.70 1015.62 1015.53 1015.42 1015.29 1015.11 1014.89 1014.62 1014.28 1013.87 1013.41 1012.89 1012.33 1011.73 1011.10 1010.45 1009.78 1009.11 1008.44 1007.77 1007.12 1006.50 1005.94
1015.53 1015.54 1015.56 1015.58 1015.59 1015.61 1015.61 1015.62 1015.63 1015.66 1015.68 1015.72 1015.75 1015.78 1015.79 1015.78 1015.75 1015.70 1015.63 1015.54 1015.45 1015.35 1015.24 1015.13 1015.00 1014.84 1014.64 1014.39 1014.08 1013.71 1013.28 1012.79 1012.25 1011.67 1011.05 1010.40 1009.72 1009.01 1008.29 1007.55 1006.83 1006.12 1005.46
1015.39 1015.41 1015.43 1015.44 1015.43 1015.42 1015.40 1015.39 1015.39 1015.40 1015.43 1015.48 1015.52 1015.56 1015.58 1015.58 1015.54 1015.48 1015.39 1015.28 1015.17 1015.05 1014.93 1014.80 1014.67 1014.52 1014.33 1014.10 1013.81 1013.47 1013.06 1012.60 1012.09 1011.52 1010.91 1010.26 1009.57 1008.84 1008.09 1007.30 1006.51 1005.74 1004.99
1015.25 1015.28 1015.29 1015.27 1015.23 1015.18 1015.13 1015.09 1015.08 1015.09 1015.13 1015.19 1015.25 1015.32 1015.35 1015.36 1015.33 1015.26 1015.15 1015.03 1014.89 1014.75 1014.61 1014.48 1014.34 1014.18 1013.99 1013.77 1013.50 1013.17 1012.78 1012.34 1011.83 1011.28 1010.68 1010.04 1009.35 1008.61 1007.83 1007.02 1006.19 1005.35 1004.54
Thickness
5768 5767 5766 5765 5764 5764 5762 5761 5760 5759 5757 5756 5756 5756 5757 5757 5758 5758 5757 5757 5756 5755 5753 5752 5750 5748 5747 5745 5744 5743 5741 5740 5739 5738 5736 5735 5734 5733 5732 5731 5729 5728 5726
5768 5766 5765 5764 5763 5763 5762 5760 5759 5758 5757 5756 5756 5756 5756 5757 5758 5758 5757 5757 5757 5756 5754 5753 5751 5750 5748 5747 5746 5745 5743 5742 5740 5739 5737 5737 5736 5734 5733 5732 5730 5729 5727
5767 5766 5765 5763 5763 5762 5761 5759 5758 5757 5756 5755 5755 5756 5756 5757 5758 5758 5758 5757 5757 5756 5755 5754 5752 5751 5750 5749 5748 5746 5745 5743 5742 5740 5739 5738 5737 5735 5734 5733 5731 5730 5728
5767 5766 5764 5763 5762 5761 5760 5759 5757 5756 5755 5754 5754 5755 5756 5757 5758 5758 5758 5758 5757 5757 5755 5754 5753 5752 5751 5750 5749 5748 5746 5744 5743 5741 5740 5739 5738 5736 5735 5734 5732 5730 5729
5767 5765 5764 5763 5762 5760 5759 5758 5757 5755 5754 5753 5754 5755 5756 5756 5757 5758 5758 5758 5757 5756 5755 5754 5753 5752 5751 5750 5750 5749 5748 5746 5745 5743 5741 5740 5739 5737 5736 5734 5733 5731 5730
5767 5765 5763 5762 5761 5760 5758 5757 5756 5755 5753 5753 5753 5754 5754 5756 5756 5756 5757 5757 5757 5756 5756 5755 5754 5753 5751 5751 5750 5750 5749 5748 5746 5744 5743 5741 5740 5738 5737 5735 5734 5733 5731
5767 5765 5763 5762 5761 5759 5758 5757 5755 5753 5751 5752 5749 5748 5751 5754 5755 5755 5756 5756 5756 5756 5755 5754 5753 5752 5751 5751 5750 5750 5749 5748 5747 5746 5744 5742 5741 5739 5738 5736 5735 5733 5732
5767 5766 5764 5762 5761 5759 5757 5755 5754 5751 5750 5750 5747 5743 5741 5744 5750 5754 5754 5754 5755 5754 5754 5753 5753 5752 5751 5750 5750 5750 5750 5749 5747 5746 5745 5743 5742 5740 5738 5737 5735 5734 5733
5768 5766 5764 5763 5761 5759 5757 5755 5754 5751 5748 5748 5748 5743 5737 5735 5741 5748 5750 5752 5752 5752 5753 5752 5752 5752 5751 5750 5750 5749 5749 5748 5747 5746 5745 5744 5742 5741 5739 5737 5736 5734 5733
5768 5766 5764 5763 5761 5760 5758 5756 5755 5752 5749 5746 5745 5746 5744 5742 5737 5739 5745 5748 5750 5750 5751 5751 5751 5751 5750 5750 5749 5749 5748 5748 5746 5745 5744 5743 5742 5740 5739 5737 5736 5734 5733
5767 5766 5764 5763 5761 5760 5758 5756 5754 5753 5750 5748 5745 5744 5743 5741 5740 5736 5737 5742 5745 5748 5749 5750 5750 5750 5749 5748 5748 5748 5748 5746 5745 5744 5743 5742 5740 5739 5738 5736 5735 5733 5732
5766 5765 5764 5762 5761 5759 5758 5756 5755 5753 5751 5749 5747 5745 5743 5740 5739 5737 5736 5738 5739 5744 5747 5748 5748 5748 5747 5747 5747 5747 5746 5745 5743 5742 5741 5740 5739 5737 5736 5735 5733 5732 5731
5763 5764 5763 5762 5760 5759 5757 5756 5754 5752 5751 5749 5747 5746 5745 5743 5742 5740 5737 5736 5736 5740 5743 5745 5746 5745 5745 5745 5744 5744 5744 5743 5741 5740 5739 5738 5736 5735 5734 5733 5732 5730 5729
5764 5763 5762 5761 5760 5758 5757 5755 5753 5752 5751 5749 5748 5747 5745 5744 5743 5741 5738 5734 5732 5734 5737 5740 5742 5742 5742 5741 5741 5740 5740 5740 5739 5737 5736 5735 5734 5733 5731 5730 5729 5728 5727
5763 5762 5761 5759 5758 5757 5756 5754 5752 5751 5749 5748 5747 5746 5745 5744 5743 5742 5740 5737 5731 5728 5731 5736 5736 5739 5738 5737 5736 5736 5736 5735 5735 5734 5733 5732 5731 5730 5729 5727 5726 5724 5723
5761 5760 5758 5757 5756 5755 5754 5752 5750 5749 5747 5747 5746 5745 5744 5743 5741 5740 5738 5736 5734 5730 5728 5733 5732 5733 5733 5733 5732 5731 5731 5731 5730 5729 5729 5728 5727 5726 5725 5724 5723 5721 5720
5759 5757 5755 5754 5753 5751 5750 5748 5747 5746 5744 5744 5743 5742 5742 5741 5739 5737 5735 5733 5731 5728 5725 5729 5729 5729 5728 5727 5727 5726 5725 5725 5725 5725 5724 5723 5722 5722 5721 5720 5719 5718 5716
5756 5754 5753 5752 5751 5749 5747 5745 5743 5743 5741 5740 5739 5738 5738 5737 5734 5733 5731 5729 5728 5726 5723 5722 5723 5722 5722 5722 5721 5720 5720 5720 5720 5720 5719 5719 5718 5717 5716 5715 5715 5713 5712
5751 5750 5749 5748 5746 5745 5743 5742 5740 5739 5738 5737 5736 5734 5734 5732 5729 5728 5727 5725 5723 5722 5720 5718 5717 5716 5716 5715 5714 5714 5714 5714 5714 5714 5714 5713 5713 5712 5711 5710 5709 5708 5707
5745 5744 5744 5744 5742 5740 5739 5738 5737 5736 5734 5733 5732 5731 5730 5728 5727 5725 5723 5721 5719 5716 5714 5711 5710 5709 5708 5708 5707 5706 5706 5707 5707 5708 5708 5708 5707 5706 5705 5704 5703 5702 5701
5739 5739 5738 5737 5736 5735 5734 5732 5732 5731 5729 5727 5727 5727 5726 5725 5723 5721 5719 5717 5715 5711 5708 5705 5703 5701 5701 5700 5699 5700 5699 5699 5700 5701 5700 5700 5699 5699 5698 5697 5696 5695 5694
5733 5732 5730 5730 5730 5730 5730 5728 5727 5725 5723 5722 5721 5721 5720 5719 5717 5715 5714 5712 5710 5706 5703 5699 5696 5695 5695 5694 5693 5692 5691 5690 5690 5693 5691 5692 5691 5690 5691 5690 5689 5688 5686
5726 5724 5724 5724 5723 5724 5723 5723 5722 5719 5717 5715 5714 5714 5713 5712 5710 5708 5706 5705 5703 5701 5700 5696 5692 5691 5690 5689 5686 5685 5684 5684 5684 5685 5683 5684 5684 5683 5683 5682 5681 5680 5679
5717 5717 5717 5717 5716 5717 5717 5716 5715 5712 5710 5708 5707 5707 5705 5703 5702 5700 5698 5696 5694 5693 5692 5690 5689 5688 5686 5684 5681 5680 5678 5677 5677 5676 5675 5675 5676 5675 5676 5674 5673 5671 5670
5710 5711 5710 5710 5709 5709 5708 5707 5706 5703 5701 5700 5700 5698 5697 5695 5694 5692 5689 5686 5685 5684 5684 5683 5682 5681 5679 5677 5675 5672 5670 5668 5668 5667 5666 5664 5666 5665 5666 5665 5664 5662 5661
5703 5703 5702 5702 5701 5701 5701 5699 5697 5695 5692 5691 5689 5688 5688 5686 5684 5682 5679 5677 5676 5676 5674 5673 5672 5671 5670 5668 5666 5665 5663 5660 5658 5658 5658 5655 5655 5654 5656 5656 5654 5653 5651